Location: Sternwarte ZA, Rosenfeld-Brittheim
(48.2889°N, 8.6789°E)
Time: 16:00:30
(UTC+02:00)

ISS - Pass Details

Date: 22 May 2018
Orbit: 402 x 407 km, 51.6° (Epoch: 23 May)

Event Time Altitude Azimuth Distance (km) Brightness Sun altitude
Rises 03:04:03 0° 291° (WNW) 2,321 0.0 -17.7°
Reaches altitude 10° 03:06:08 10° 292° (WNW) 1,460 -1.0 -17.5°
Maximum altitude 03:09:25 85° 19° (NNE) 409 -3.9 -17.3°
Drops below altitude 10° 03:12:41 10° 111° (ESE) 1,454 -0.9 -17.0°
Sets 03:14:45 0° 112° (ESE) 2,311 0.1 -16.9°
